Location: Recife
(8.0585°S, 34.8848°W)
Time: 22:08:21
(UTC-03:00)

Tiros 1 - Pass Details

Date: 22 April 2026
Orbit: 618 x 649 km, 48.4° (Epoch: 19 May)

Event Time Altitude Azimuth Distance (km) Brightness Sun altitude
Exits shadow 02:58:17 14° 118° (ESE) 1,721 9.8 -35.7°
Drops below altitude 10° 02:59:54 10° 98° (E) 1,984 10.4 -35.4°
Sets 03:03:03 0° 75° (ENE) 2,881 11.5 -34.6°
